This demonstration page uses our WeatherBlox Daily Observations layout. Learn more.

Left ArrowRight Arrow

Hourly Observations for April 6, 2021

Temp ( °F °C ) Dew Point ( °F °C ) Humidity (%) Winds ( mph kmh ) Pressure ( in mb ) Visibility ( mi km ) Precip ( " mm )
12:56 am 00:56 Clear 66 18.9 52 11.1 61 61 S 17 28 29.53 1000 10 16 0.00 0.00
1:56 am 01:56 Clear 63 17.2 52 11.1 68 68 SSE 7 11 29.54 1000 10 16 0.00 0.00
2:56 am 02:56 Clear 58 14.4 51 10.6 78 78 ENE 8 13 29.54 1000 10 16 0.00 0.00
3:56 am 03:56 Clear 56 13.3 52 11.1 87 87 E 12 19 29.52 1000 10 16 0.00 0.00
4:56 am 04:56 Clear 58 14.4 53 11.7 84 84 E 13 20 29.50 999 10 16 0.00 0.00
5:56 am 05:56 Clear 59 15 53 11.7 81 81 SSE 9 15 29.50 999 10 16 0.00 0.00
6:56 am 06:56 Mostly Clear 60 15.6 53 11.7 78 78 SSE 15 24 29.50 999 10 16 0.00 0.00
7:56 am 07:56 Mostly Cloudy 60 15.6 53 11.7 78 78 SE 22 35 29.49 999 10 16 0.00 0.00
8:56 am 08:56 Sunny 62 16.7 54 12.2 75 75 SSE 24 39 29.49 999 10 16 0.00 0.00
9:56 am 09:56 Sunny 65 18.3 54 12.2 68 68 SSE 22 35 29.49 999 10 16 0.00 0.00
10:56 am 10:56 Sunny 68 20 54 12.2 61 61 SE 23 37 29.48 998 10 16 0.00 0.00
11:56 am 11:56 Partly Cloudy 70 21.1 54 12.2 57 57 SSE 23 37 29.48 998 10 16 0.00 0.00
12:56 pm 12:56 Cloudy 71 21.7 55 12.8 57 57 SSE 20 31 29.48 998 10 16 0.00 0.00
1:56 pm 13:56 Cloudy 71 21.7 55 12.8 57 57 SSE 22 35 29.47 998 10 16 0.00 0.00
2:56 pm 14:56 Cloudy 70 21.1 57 13.9 64 64 SE 22 35 29.46 998 10 16 0.00 0.00
3:56 pm 15:56 Mostly Cloudy 73 22.8 56 13.3 55 55 SE 24 39 29.44 997 10 16 0.00 0.00
4:56 pm 16:56 Mostly Cloudy 72 22.2 57 13.9 59 59 SE 23 37 29.44 997 10 16 0.00 0.00
5:56 pm 17:56 Mostly Cloudy 72 22.2 57 13.9 59 59 SSE 24 39 29.44 997 10 16 0.00 0.00
6:56 pm 18:56 Mostly Cloudy 69 20.6 58 14.4 68 68 SE 25 41 29.44 997 10 16 0.00 0.00
7:56 pm 19:56 Partly Cloudy 67 19.4 57 13.9 71 71 SW 21 33 29.48 998 9 14 0.00 0.00
8:01 pm 20:01 Partly Cloudy with Mist and Fog 57 14 57 14 100 100 WNW 28 44 29.51 999 4 6 0.00 0.00
8:06 pm 20:06 Mostly Cloudy with Haze 54 12 41 5 63 63 NW 31 50 29.52 1000 4 6 0.00 0.00
8:46 pm 20:46 Cloudy with Nearby Thunderstorms 50 10 43 6 76 76 N 31 50 29.56 1001 10 16 0.00 0.00
8:56 pm 20:56 Cloudy with Nearby Thunderstorms 49 9.4 43 6.1 80 80 N 30 48 29.53 1000 10 16 0.00 0.00
9:07 pm 21:07 Cloudy 48 9 43 6 82 82 N 23 37 29.56 1001 10 16 0.00 0.00
9:16 pm 21:16 Cloudy with Nearby Thunderstorms 48 9 43 6 82 82 N 20 31 29.57 1001 10 16 0.00 0.00
9:31 pm 21:31 Cloudy 48 9 45 7 87 87 NNW 18 30 29.61 1003 10 16 0.00 0.00
9:41 pm 21:41 Cloudy 48 9 45 7 87 87 NNW 21 33 29.61 1003 10 16 0.00 0.00
9:56 pm 21:56 Cloudy 48 8.9 44 6.7 86 86 NNW 23 37 29.58 1002 10 16 0.00 0.00
10:47 pm 22:47 Cloudy 46 8 41 5 82 82 NNW 28 44 29.65 1004 10 16 0.00 0.00
10:56 pm 22:56 Cloudy 45 7.2 41 5 86 86 NNW 29 46 29.61 1003 10 16 0.00 0.00
11:06 pm 23:06 Cloudy 45 7 39 4 81 81 NNW 26 43 29.67 1005 10 16 0.00 0.00
11:56 pm 23:56 Cloudy 42 5.6 38 3.3 85 85 NNW 25 41 29.66 1004 10 16 0.00 0.00

Powered by AerisWeather